Wind_Speed
24 24 26 27 27 28 29 30 30 31 32 32 33 33 34 35 35 36 36 36 37 37 37 38 38 39 39 39 40 40 41 41 41 42 42 42 42 42 42 42 42 42 43
25 26 27 28 29 29 30 31 31 32 33 33 34 35 35 36 36 37 37 37 38 38 38 39 39 39 39 40 40 41 41 42 42 42 43 43 43 43 43 43 43 43 44
27 28 28 29 30 30 31 32 32 33 34 34 35 36 36 36 37 38 38 38 39 39 39 39 39 39 40 41 41 42 42 42 43 43 43 43 43 43 43 44 44 44 44
28 29 29 30 31 32 32 33 33 34 35 35 36 36 37 37 38 38 39 39 39 39 39 40 40 40 41 41 42 42 42 42 43 43 43 43 43 44 44 44 44 44 44
30 30 31 31 32 33 33 34 35 35 36 36 37 37 37 38 39 39 39 39 39 40 40 40 40 41 41 41 42 42 42 43 43 43 43 43 43 44 45 45 45 45 45
31 31 32 33 33 34 34 35 35 36 37 37 38 38 38 39 39 39 40 40 40 40 40 41 42 42 42 42 42 42 42 42 42 42 43 43 44 44 45 45 45 45 45
32 33 33 33 34 34 35 36 36 37 37 38 38 38 39 39 39 40 41 41 41 41 41 42 42 41 42 42 42 42 42 43 43 43 44 44 45 45 45 45 45 45 45
34 34 34 34 35 35 36 37 37 38 38 38 39 39 39 39 40 41 41 42 42 41 42 42 42 42 43 43 43 43 44 44 44 45 45 45 45 45 45 45 45 46 46
35 35 35 36 36 36 37 37 38 38 38 39 39 39 40 40 40 41 41 42 42 42 42 43 43 43 43 44 44 44 45 45 46 46 46 46 45 46 46 46 47 47 48
36 36 36 36 36 37 38 38 38 39 39 39 40 41 41 41 41 41 41 42 42 43 43 44 44 44 44 45 45 46 46 47 47 47 47 47 47 47 48 49 49 50 50
37 37 37 37 37 38 39 39 39 39 39 40 40 41 41 41 42 42 42 42 43 43 44 44 44 45 46 46 47 47 48 48 48 49 49 49 50 51 51 52 53 53 54
37 37 37 38 38 39 39 39 38 39 39 40 41 41 41 42 42 43 42 43 43 44 44 45 46 47 48 48 49 49 49 50 50 51 52 52 53 54 55 56 57 57 58
38 38 38 38 38 39 39 38 38 39 39 40 41 41 41 42 43 43 44 44 44 44 45 47 48 49 49 50 51 51 52 52 53 54 55 56 57 58 59 60 61 62 64
38 38 38 39 39 38 38 38 38 39 40 40 40 41 42 43 44 44 45 45 45 45 46 48 49 50 51 52 52 53 54 55 56 57 58 60 61 62 64 65 67 67 68
38 38 38 38 38 38 38 38 39 39 40 40 40 42 43 44 45 45 45 46 47 47 48 49 51 52 53 54 55 56 57 58 59 61 62 64 65 67 68 69 69 69 70
38 38 38 38 38 38 38 38 39 40 40 40 41 43 44 45 45 45 47 48 49 50 50 51 52 54 55 56 57 58 60 61 63 65 67 68 69 69 69 69 68 69 70
37 37 37 37 37 37 38 38 39 40 40 41 43 43 44 44 45 47 48 49 50 52 52 53 55 56 57 58 60 61 63 65 67 68 69 70 69 69 68 68 69 70 70
36 37 37 37 37 37 38 38 39 40 41 42 43 43 44 45 46 48 49 51 52 53 55 56 57 58 59 61 62 64 66 68 69 70 70 69 69 69 69 70 70 70 69
36 36 37 37 37 37 38 38 39 41 41 42 43 44 45 46 47 49 51 52 54 56 58 58 59 60 61 64 65 66 67 69 70 70 70 70 70 70 70 70 69 69 68
36 36 36 36 36 37 38 39 40 41 41 42 43 44 45 47 49 50 52 54 56 58 59 60 61 62 64 65 67 67 68 69 70 71 70 71 70 70 69 68 67 66 64
35 35 35 36 36 37 38 39 40 40 41 42 43 45 47 48 50 52 54 56 57 59 60 62 63 64 65 67 67 69 69 69 69 69 69 69 68 67 67 65 63 60 57
34 35 35 35 36 37 38 39 40 41 41 43 44 46 48 50 52 53 55 57 58 60 62 63 64 66 67 67 68 69 69 69 67 66 66 64 65 63 62 60 58 54 52
34 34 34 35 36 37 38 39 40 41 42 43 45 47 49 51 53 54 55 57 60 62 63 65 66 67 67 67 68 68 68 67 66 65 64 62 61 59 58 56 53 50 48
33 33 34 35 36 37 38 39 40 41 43 45 46 48 50 52 53 55 56 58 60 62 64 65 66 66 66 67 67 67 67 66 65 65 64 60 57 55 53 50 48 46 44
33 34 34 35 36 37 38 40 41 42 44 45 47 49 51 52 54 56 57 59 61 63 64 65 65 65 66 66 67 67 67 66 64 62 60 58 54 50 47 46 45 42 39
33 33 34 35 36 38 39 40 42 43 45 46 48 50 51 53 55 57 59 61 62 63 63 63 63 64 65 66 66 67 67 65 62 58 56 53 50 46 41 41 40 37 33
Wind_Direction
288 290 292 294 295 296 297 298 298 298 298 299 299 300 301 300 300 301 300 300 300 299 298 297 296 295 294 294 293 292 292 291 290 289 288 287 286 285 284 283 282 281 279
288 290 293 294 294 295 296 297 297 298 298 299 300 300 300 300 300 300 300 300 300 299 299 298 297 296 295 294 294 293 293 292 291 290 289 288 287 286 285 284 283 281 280
288 290 292 293 294 295 296 296 297 298 298 299 299 299 299 300 300 300 300 301 300 300 300 299 298 297 296 295 295 294 294 293 292 291 290 289 288 287 286 285 284 282 281
288 290 291 292 293 294 295 296 297 297 298 298 299 299 299 300 300 300 301 301 301 300 300 299 298 297 297 297 296 296 295 294 293 292 291 290 289 288 287 286 285 283 282
288 289 291 291 292 293 294 295 296 297 298 299 299 299 300 300 301 301 301 301 301 301 301 300 300 299 298 298 298 297 296 295 294 293 292 291 290 289 288 287 286 284 283
286 287 289 290 291 292 293 294 295 296 297 298 298 299 300 301 301 301 302 302 302 301 301 301 301 301 300 300 299 299 298 297 296 295 293 292 291 291 289 288 287 285 284
284 286 288 289 290 291 292 293 295 296 297 297 298 299 300 301 301 302 303 303 303 303 303 303 303 302 302 301 301 300 299 298 297 296 295 294 293 292 291 289 288 286 284
283 285 287 288 289 291 292 293 294 295 296 297 298 299 300 301 302 303 303 304 304 303 304 304 303 303 303 302 302 301 301 299 298 297 296 295 294 293 292 290 289 287 286
283 286 287 287 288 290 292 293 294 295 296 297 298 298 299 300 301 303 303 304 304 304 304 304 304 304 304 303 303 302 301 300 299 298 297 296 295 293 292 291 290 288 287
283 284 285 286 288 290 292 293 294 295 296 296 297 298 300 301 302 303 303 304 304 304 304 304 304 304 304 304 303 303 302 301 300 299 298 297 295 294 293 292 290 289 288
281 282 284 286 287 289 291 292 293 294 295 296 297 298 300 301 302 303 304 304 305 305 305 305 305 305 305 305 304 303 303 302 301 300 298 297 296 294 293 292 291 290 289
280 281 283 285 287 289 291 292 293 294 295 296 297 299 300 301 302 303 304 304 305 305 306 305 305 306 305 305 305 304 303 302 301 300 299 297 296 294 293 292 291 290 289
279 280 283 285 287 289 291 292 293 294 295 296 297 298 299 301 302 303 304 304 305 305 306 306 306 306 306 306 305 304 303 302 301 300 299 298 297 296 294 293 292 291 289
277 280 282 284 286 288 289 291 292 293 294 296 297 297 299 301 302 303 304 304 305 305 306 306 306 306 306 305 305 304 303 303 302 301 300 298 297 296 295 294 292 291 290
277 280 282 284 285 286 288 289 291 292 294 295 296 298 300 301 302 303 304 305 305 305 306 306 306 306 306 305 305 305 304 304 303 301 300 299 298 296 295 294 293 292 290
277 279 281 283 284 286 287 289 290 292 294 295 296 298 300 301 302 303 304 304 305 305 306 306 306 306 306 306 306 305 305 304 304 302 301 300 298 297 296 295 294 293 292
276 278 280 282 284 286 287 289 290 292 294 295 297 299 300 301 302 303 304 304 305 306 306 307 307 307 307 307 307 307 306 305 305 304 302 301 299 298 297 297 296 295 294
276 278 280 282 284 286 287 289 290 292 294 296 297 299 300 301 302 303 304 305 305 306 307 308 308 308 308 308 307 307 306 306 305 305 303 301 300 299 299 298 297 296 295
276 278 279 281 283 285 287 288 290 293 294 295 297 298 300 301 302 303 304 305 306 307 308 308 308 308 308 308 308 307 307 307 306 306 304 303 302 301 300 299 298 297 296
276 278 279 281 283 285 287 289 291 293 294 295 297 299 300 301 303 304 305 305 306 307 308 308 309 309 309 308 308 308 308 308 307 306 305 304 302 302 301 300 300 299 298
276 278 279 281 283 285 287 290 291 293 294 296 298 299 300 302 303 304 305 305 307 308 308 309 309 309 309 309 309 309 309 309 308 308 307 306 304 303 303 303 302 300 299
276 278 280 281 283 286 288 290 292 294 295 297 298 299 301 302 303 304 305 306 308 309 309 309 309 309 309 309 310 310 311 310 310 310 309 308 306 305 304 304 303 302 300
277 278 280 282 284 286 289 291 293 294 296 297 299 300 301 303 304 305 306 307 309 310 310 310 310 310 310 311 311 312 312 312 312 311 311 310 309 308 306 305 304 303 302
277 279 281 283 286 288 290 291 294 295 297 298 300 301 302 304 305 306 307 308 310 310 309 309 310 311 311 312 313 313 313 313 313 312 312 312 310 309 308 306 306 306 305
278 280 282 284 287 289 291 293 295 296 298 299 301 302 303 304 306 307 308 309 310 310 309 310 311 312 312 313 313 314 314 314 313 312 312 312 311 310 308 307 308 308 307
278 280 283 285 288 290 292 294 296 298 299 300 302 303 304 305 306 308 309 310 310 310 310 311 311 312 313 313 314 314 314 314 314 313 313 313 312 311 310 309 309 310 309
Height
5829 5828 5827 5825 5824 5822 5821 5819 5817 5815 5813 5811 5809 5806 5804 5801 5799 5797 5794 5792 5789 5786 5783 5781 5778 5776 5773 5770 5768 5765 5763 5760 5758 5755 5753 5751 5749 5747 5746 5744 5742 5741 5740
5823 5822 5821 5820 5818 5817 5815 5813 5811 5809 5807 5805 5802 5800 5797 5795 5792 5790 5787 5784 5782 5779 5776 5773 5770 5768 5765 5762 5759 5757 5754 5751 5749 5746 5744 5742 5740 5738 5736 5734 5733 5731 5730
5818 5817 5815 5814 5812 5810 5809 5807 5805 5802 5800 5798 5796 5793 5791 5788 5786 5783 5780 5777 5774 5771 5768 5765 5762 5759 5757 5754 5751 5748 5745 5742 5739 5737 5734 5732 5730 5727 5725 5724 5722 5720 5719
5812 5810 5809 5808 5806 5804 5802 5800 5798 5796 5794 5791 5789 5787 5784 5781 5779 5776 5773 5770 5767 5764 5761 5758 5754 5751 5748 5745 5742 5739 5736 5733 5730 5727 5724 5722 5719 5717 5715 5713 5711 5710 5708
5805 5804 5803 5801 5799 5798 5796 5794 5791 5789 5787 5784 5782 5779 5777 5774 5771 5768 5765 5762 5759 5756 5753 5749 5746 5743 5739 5736 5733 5729 5726 5723 5720 5717 5715 5712 5709 5707 5705 5702 5700 5699 5697
5799 5798 5796 5794 5793 5791 5789 5787 5784 5782 5780 5777 5775 5772 5769 5766 5763 5760 5757 5754 5751 5748 5744 5741 5738 5734 5731 5727 5723 5720 5717 5714 5710 5707 5704 5702 5699 5696 5694 5691 5689 5687 5686
5792 5791 5789 5788 5786 5784 5782 5780 5777 5775 5773 5770 5768 5765 5762 5759 5756 5753 5749 5746 5743 5739 5736 5732 5729 5725 5722 5718 5714 5711 5707 5704 5701 5697 5694 5691 5688 5685 5683 5680 5678 5676 5674
5785 5784 5782 5781 5779 5777 5775 5773 5770 5768 5765 5763 5760 5757 5755 5752 5748 5745 5741 5738 5734 5731 5727 5724 5720 5716 5713 5709 5705 5701 5698 5694 5690 5687 5684 5680 5677 5674 5672 5669 5667 5664 5662
5777 5776 5775 5773 5771 5769 5767 5765 5763 5760 5758 5755 5752 5750 5747 5744 5741 5737 5733 5730 5726 5722 5718 5714 5711 5707 5703 5699 5696 5692 5688 5684 5680 5676 5673 5670 5666 5663 5660 5657 5655 5652 5650
5770 5769 5767 5765 5764 5762 5760 5757 5755 5753 5750 5747 5744 5741 5739 5735 5733 5729 5726 5721 5717 5713 5709 5705 5701 5697 5694 5690 5686 5681 5677 5673 5669 5665 5661 5658 5654 5651 5648 5645 5642 5639 5636
5762 5761 5759 5758 5756 5754 5752 5750 5747 5745 5742 5739 5736 5733 5730 5727 5723 5721 5717 5713 5709 5704 5700 5696 5692 5688 5684 5679 5675 5671 5666 5662 5658 5654 5650 5646 5642 5638 5634 5631 5628 5624 5621
5754 5753 5751 5750 5748 5746 5744 5742 5739 5737 5734 5731 5728 5725 5722 5719 5715 5712 5708 5704 5700 5696 5691 5686 5682 5677 5673 5668 5664 5659 5655 5650 5646 5641 5637 5633 5628 5624 5620 5616 5612 5609 5605
5746 5744 5743 5742 5740 5738 5736 5734 5731 5729 5726 5723 5720 5717 5714 5710 5707 5703 5699 5695 5691 5687 5682 5677 5671 5667 5662 5657 5652 5648 5643 5638 5633 5628 5623 5618 5614 5609 5604 5600 5595 5591 5587
5737 5736 5735 5734 5732 5730 5728 5726 5723 5721 5718 5715 5712 5709 5705 5701 5698 5694 5690 5685 5682 5678 5673 5667 5662 5656 5651 5646 5640 5635 5630 5625 5619 5614 5608 5603 5597 5592 5587 5582 5576 5571 5566
5729 5728 5727 5725 5724 5722 5720 5718 5715 5713 5710 5707 5704 5700 5697 5693 5688 5684 5680 5675 5672 5667 5664 5658 5651 5645 5639 5633 5627 5622 5616 5610 5604 5598 5592 5586 5580 5573 5567 5561 5556 5550 5545
5721 5720 5718 5717 5716 5714 5711 5709 5707 5704 5702 5698 5695 5691 5688 5683 5679 5675 5670 5665 5660 5656 5652 5647 5640 5633 5627 5620 5614 5608 5601 5595 5588 5581 5573 5566 5560 5553 5547 5540 5534 5528 5522
5712 5711 5710 5709 5707 5705 5703 5701 5699 5696 5693 5690 5686 5682 5678 5674 5670 5665 5660 5655 5650 5644 5640 5635 5628 5621 5614 5607 5600 5593 5585 5578 5570 5562 5554 5546 5539 5532 5526 5519 5513 5506 5500
5704 5703 5701 5700 5699 5697 5695 5693 5690 5687 5684 5681 5677 5673 5669 5664 5660 5655 5650 5644 5638 5633 5627 5622 5616 5608 5601 5593 5586 5578 5569 5561 5552 5543 5534 5526 5518 5511 5505 5498 5491 5485 5478
5695 5694 5693 5692 5690 5689 5686 5684 5681 5678 5675 5672 5668 5664 5659 5655 5650 5645 5639 5633 5627 5621 5614 5608 5602 5594 5587 5578 5570 5562 5553 5543 5534 5524 5515 5506 5498 5491 5484 5477 5470 5463 5457
5686 5686 5685 5683 5682 5680 5678 5675 5673 5669 5666 5662 5659 5654 5649 5645 5640 5634 5628 5622 5615 5608 5601 5594 5588 5580 5572 5563 5554 5545 5537 5527 5517 5507 5496 5487 5478 5470 5463 5456 5450 5443 5436
5678 5677 5676 5675 5673 5671 5669 5666 5664 5660 5657 5653 5649 5644 5639 5634 5629 5623 5617 5610 5603 5596 5588 5581 5573 5565 5556 5547 5538 5528 5520 5511 5501 5489 5479 5469 5459 5452 5443 5436 5429 5423 5417
5669 5669 5668 5666 5665 5663 5660 5657 5654 5651 5648 5644 5639 5634 5629 5624 5618 5611 5605 5597 5590 5582 5575 5567 5558 5549 5540 5530 5521 5511 5501 5493 5485 5475 5464 5455 5443 5435 5426 5419 5412 5406 5401
5661 5660 5659 5657 5656 5653 5651 5648 5645 5642 5638 5634 5629 5624 5619 5613 5606 5600 5593 5586 5577 5568 5560 5552 5543 5534 5524 5515 5506 5497 5486 5475 5466 5456 5447 5440 5429 5420 5411 5404 5397 5392 5387
5652 5651 5650 5648 5647 5644 5642 5639 5636 5632 5628 5624 5619 5613 5608 5601 5595 5588 5582 5574 5565 5556 5547 5538 5529 5519 5509 5499 5489 5480 5470 5462 5452 5441 5430 5424 5416 5407 5399 5390 5384 5380 5375
5643 5642 5641 5639 5637 5635 5633 5630 5626 5623 5618 5613 5608 5602 5596 5590 5583 5577 5570 5562 5553 5543 5533 5523 5514 5504 5494 5484 5474 5465 5455 5446 5438 5428 5417 5409 5402 5396 5389 5380 5374 5369 5364
5634 5633 5632 5630 5628 5626 5623 5620 5617 5613 5608 5603 5598 5592 5585 5579 5571 5564 5556 5548 5539 5530 5520 5511 5501 5491 5480 5470 5459 5449 5440 5431 5422 5414 5406 5397 5390 5383 5379 5373 5365 5360 5356